| time (UTC) | temp C | wind direction | speed KPH | gust KPH | rain 1hr cm | rain 24hr cm | rain mn cm | humidity % | barometer mb |
| 20260507030033 | 12 | 0 | 0.0 | 8.0 | 0.00 | 0.00 | 0.00 | 77 | 1019.4 |
| 20260507024543 | 12 | 0 | 0.0 | 3.2 | 0.00 | 0.00 | 0.00 | 76 | 1019.2 |
| 20260507023033 | 13 | 124 | 0.0 | 6.4 | 0.00 | 0.00 | 0.00 | 75 | 1019.1 |
| 20260507021533 | 13 | 269 | 1.6 | 6.4 | 0.00 | 0.00 | 0.00 | 74 | 1019.1 |
| 20260507020032 | 13 | 344 | 1.6 | 6.4 | 0.00 | 0.00 | 0.00 | 74 | 1019.0 |
| 20260507014530 | 13 | 314 | 3.2 | 11.3 | 0.00 | 0.00 | 0.00 | 73 | 1019.2 |
| 20260507013037 | 13 | 318 | 3.2 | 8.0 | 0.00 | 0.00 | 0.00 | 72 | 1019.1 |
| 20260507011535 | 13 | 269 | 1.6 | 8.0 | 0.00 | 0.00 | 0.00 | 71 | 1019.2 |
| 20260507010038 | 14 | 0 | 1.6 | 11.3 | 0.00 | 0.00 | 0.00 | 71 | 1019.2 |
| 20260507004529 | 14 | 331 | 1.6 | 9.7 | 0.00 | 0.00 | 0.00 | 70 | 1019.1 |
| 20260507003031 | 14 | 257 | 1.6 | 16.1 | 0.00 | 0.00 | 0.00 | 70 | 1019.1 |
| 20260507001537 | 14 | 331 | 1.6 | 12.9 | 0.00 | 0.00 | 0.00 | 70 | 1019.1 |
| 20260507000031 | 14 | 63 | 4.8 | 12.9 | 0.00 | 0.00 | 0.00 | 69 | 1019.3 |
| 20260506234545 | 14 | 304 | 1.6 | 14.5 | 0.00 | 0.00 | 0.00 | 71 | 1019.3 |
| 20260506233031 | 14 | 1 | 1.6 | 14.5 | 0.00 | 0.00 | 0.00 | 71 | 1019.4 |
| 20260506231536 | 14 | 223 | 0.0 | 6.4 | 0.00 | 0.00 | 0.00 | 70 | 1019.5 |
| 20260506230030 | 14 | 277 | 3.2 | 9.7 | 0.00 | 0.00 | 0.00 | 70 | 1019.3 |
| 20260506224542 | 14 | 257 | 1.6 | 8.0 | 0.00 | 0.00 | 0.00 | 70 | 1019.4 |
| 20260506223032 | 14 | 89 | 1.6 | 14.5 | 0.00 | 0.00 | 0.00 | 70 | 1019.4 |
| 20260506221532 | 14 | 210 | 1.6 | 16.1 | 0.00 | 0.00 | 0.00 | 70 | 1019.6 |
| 20260506220043 | 14 | 257 | 3.2 | 12.9 | 0.00 | 0.00 | 0.00 | 70 | 1019.7 |
| 20260506214532 | 14 | 314 | 0.0 | 11.3 | 0.00 | 0.00 | 0.00 | 72 | 1019.7 |
| 20260506213032 | 14 | 317 | 3.2 | 11.3 | 0.00 | 0.00 | 0.00 | 70 | 1019.5 |
| 20260506211532 | 14 | 344 | 3.2 | 14.5 | 0.00 | 0.00 | 0.00 | 69 | 1019.6 |
| 20260506210030 | 15 | 13 | 4.8 | 14.5 | 0.00 | 0.00 | 0.00 | 67 | 1019.5 |
| 20260506204538 | 15 | 309 | 3.2 | 12.9 | 0.00 | 0.00 | 0.00 | 69 | 1019.6 |
| 20260506203034 | 14 | 316 | 3.2 | 11.3 | 0.00 | 0.00 | 0.00 | 70 | 1019.5 |
| 20260506201531 | 14 | 135 | 3.2 | 16.1 | 0.00 | 0.00 | 0.00 | 70 | 1019.4 |
| 20260506200035 | 14 | 0 | 3.2 | 9.7 | 0.00 | 0.00 | 0.00 | 69 | 1019.4 |
| 20260506194535 | 14 | 317 | 1.6 | 8.0 | 0.00 | 0.00 | 0.00 | 72 | 1019.3 |
| 20260506193032 | 13 | 23 | 3.2 | 12.9 | 0.00 | 0.00 | 0.00 | 72 | 1019.4 |
| 20260506191532 | 13 | 1 | 1.6 | 8.0 | 0.00 | 0.00 | 0.00 | 72 | 1019.3 |
| 20260506190031 | 13 | 336 | 1.6 | 8.0 | 0.00 | 0.00 | 0.00 | 71 | 1019.4 |
| 20260506184532 | 13 | 135 | 1.6 | 9.7 | 0.00 | 0.00 | 0.00 | 71 | 1019.3 |
| 20260506183033 | 13 | 178 | 3.2 | 11.3 | 0.00 | 0.00 | 0.00 | 69 | 1019.2 |
| 20260506181531 | 13 | 188 | 1.6 | 14.5 | 0.00 | 0.00 | 0.00 | 69 | 1019.2 |
| 20260506180033 | 13 | 307 | 1.6 | 11.3 | 0.00 | 0.00 | 0.00 | 74 | 1018.9 |
| 20260506174532 | 13 | 350 | 3.2 | 9.7 | 0.00 | 0.00 | 0.00 | 74 | 1019.0 |
| 20260506173038 | 13 | 193 | 1.6 | 6.4 | 0.00 | 0.00 | 0.00 | 74 | 1018.7 |
| 20260506171528 | 13 | 213 | 1.6 | 8.0 | 0.00 | 0.00 | 0.00 | 76 | 1018.9 |
| 20260506170032 | 12 | 257 | 3.2 | 14.5 | 0.00 | 0.00 | 0.00 | 76 | 1018.9 |
| 20260506164531 | 12 | 117 | 1.6 | 6.4 | 0.00 | 0.00 | 0.00 | 77 | 1018.9 |
| 20260506163030 | 12 | 269 | 1.6 | 4.8 | 0.00 | 0.00 | 0.00 | 79 | 1018.8 |
| 20260506161532 | 12 | 152 | 1.6 | 4.8 | 0.00 | 0.00 | 0.00 | 79 | 1018.7 |
| 20260506160038 | 12 | 0 | 0.0 | 4.8 | 0.00 | 0.00 | 0.00 | 80 | 1018.6 |
| 20260506154532 | 12 | 307 | 1.6 | 6.4 | 0.00 | 0.00 | 0.00 | 82 | 1018.4 |
| 20260506153032 | 11 | 1 | 1.6 | 9.7 | 0.00 | 0.00 | 0.00 | 82 | 1018.6 |
| 20260506151531 | 11 | 46 | 1.6 | 6.4 | 0.00 | 0.00 | 0.00 | 84 | 1018.4 |
| 20260506150030 | 11 | 0 | 1.6 | 8.0 | 0.00 | 0.00 | 0.00 | 84 | 1018.8 |
| 20260506144529 | 11 | 322 | 0.0 | 4.8 | 0.00 | 0.00 | 0.00 | 85 | 1018.6 |
| 20260506143035 | 11 | 269 | 1.6 | 6.4 | 0.00 | 0.00 | 0.00 | 85 | 1018.4 |
| 20260506141532 | 11 | 1 | 0.0 | 4.8 | 0.00 | 0.00 | 0.00 | 85 | 1018.0 |
| 20260506140035 | 11 | 329 | 1.6 | 3.2 | 0.00 | 0.00 | 0.00 | 85 | 1018.2 |
| 20260506134530 | 11 | 178 | 1.6 | 4.8 | 0.00 | 0.00 | 0.00 | 86 | 1018.2 |
| 20260506133034 | 11 | 161 | 0.0 | 4.8 | 0.00 | 0.00 | 0.00 | 85 | 1018.0 |
| 20260506131544 | 11 | 0 | 0.0 | 4.8 | 0.00 | 0.00 | 0.00 | 86 | 1018.0 |
| 20260506130038 | 11 | 0 | 0.0 | 11.3 | 0.00 | 0.00 | 0.00 | 86 | 1018.0 |
| 20260506124532 | 11 | 269 | 0.0 | 6.4 | 0.00 | 0.00 | 0.00 | 86 | 1017.8 |
| 20260506123032 | 11 | 0 | 1.6 | 6.4 | 0.00 | 0.00 | 0.00 | 86 | 1017.7 |
| 20260506121531 | 11 | 0 | 0.0 | 9.7 | 0.00 | 0.00 | 0.00 | 86 | 1017.6 |
| 20260506120030 | 11 | 0 | 0.0 | 6.4 | 0.00 | 0.00 | 0.00 | 86 | 1017.7 |
| 20260506114530 | 11 | 277 | 1.6 | 4.8 | 0.00 | 0.00 | 0.00 | 86 | 1017.5 |
| 20260506113032 | 11 | 0 | 1.6 | 3.2 | 0.00 | 0.00 | 0.00 | 86 | 1017.3 |
| 20260506111529 | 11 | 310 | 0.0 | 6.4 | 0.00 | 0.00 | 0.00 | 86 | 1017.4 |
| 20260506110028 | 11 | 347 | 1.6 | 6.4 | 0.00 | 0.00 | 0.00 | 86 | 1017.3 |
| 20260506104528 | 11 | 0 | 0.0 | 6.4 | 0.00 | 0.00 | 0.00 | 86 | 1017.1 |
| 20260506103038 | 11 | 309 | 0.0 | 8.0 | 0.00 | 0.00 | 0.00 | 86 | 1017.0 |
| 20260506101533 | 11 | 349 | 0.0 | 4.8 | 0.00 | 0.00 | 0.00 | 86 | 1016.9 |
| 20260506100036 | 11 | 0 | 0.0 | 3.2 | 0.00 | 0.00 | 0.00 | 86 | 1016.7 |
| 20260506094538 | 11 | 0 | 0.0 | 4.8 | 0.00 | 0.00 | 0.00 | 86 | 1016.5 |
| 20260506093034 | 11 | 324 | 0.0 | 3.2 | 0.00 | 0.00 | 0.00 | 86 | 1016.5 |
| 20260506091531 | 11 | 0 | 0.0 | 3.2 | 0.00 | 0.00 | 0.00 | 86 | 1016.5 |
| 20260506090032 | 11 | 269 | 1.6 | 6.4 | 0.00 | 0.00 | 0.00 | 87 | 1016.6 |
| 20260506084532 | 11 | 295 | 0.0 | 3.2 | 0.00 | 0.00 | 0.00 | 88 | 1016.5 |
| 20260506083031 | 11 | 0 | 0.0 | 1.6 | 0.00 | 0.00 | 0.00 | 89 | 1016.1 |
| 20260506081533 | 11 | 0 | 0.0 | 3.2 | 0.00 | 0.00 | 0.00 | 89 | 1016.1 |
| 20260506073030 | 10 | 0 | 0.0 | 1.6 | 0.00 | 0.00 | 0.00 | 89 | 1015.7 |
| 20260506071535 | 10 | 0 | 0.0 | 1.6 | 0.00 | 0.00 | 0.00 | 88 | 1015.6 |
| 20260506061530 | 10 | 0 | 0.0 | 1.6 | 0.00 | 0.00 | 0.00 | 86 | 1015.0 |
| 20260506044530 | 12 | 0 | 0.0 | 1.6 | 0.00 | 0.00 | 0.00 | 82 | 1014.7 |
| 20260506043027 | 12 | 0 | 0.0 | 1.6 | 0.00 | 0.00 | 0.00 | 81 | 1014.7 |
| 20260506041532 | 12 | 0 | 0.0 | 1.6 | 0.00 | 0.00 | 0.00 | 80 | 1014.5 |
| 20260506040033 | 13 | 0 | 0.0 | 1.6 | 0.00 | 0.00 | 0.00 | 78 | 1014.4 |
| 20260506034530 | 13 | 0 | 0.0 | 1.6 | 0.00 | 0.00 | 0.00 | 77 | 1014.2 |
| 20260506033028 | 14 | 0 | 0.0 | 1.6 | 0.00 | 0.00 | 0.00 | 75 | 1014.0 |
| 20260506031528 | 15 | 0 | 0.0 | 1.6 | 0.00 | 0.00 | 0.00 | 73 | 1014.0 |